Cross City, FL

9:00 PM EST on December 06, 2019 (GMT -0500)
Cross City

Weather History for KCTY - October, 2019

Change the Weather History Date:

Thursday, October 24, 2019

  Actual Average Record
Temperature  
Mean Temperature 73 °F 68 °F  
Max Temperature 86 °F 81 °F 89 °F (2010)
Min Temperature 59 °F 55 °F 33 °F (2006)
Degree Days  
Heating Degree Days 0    
Month to date heating degree days 4  
Since 1 July heating degree days 4  
Cooling Degree Days 8    
Month to date cooling degree days 242  
Year to date cooling degree days 2999  
Growing Degree Days 22 (Base 50)    
Moisture  
Dew Point 64 °F    
Average Humidity 76    
Maximum Humidity 90    
Minimum Humidity 58    
Precipitation  
Precipitation 0.00 in 0.09 in 0.42 in (2008)
Month to date precipitation 1.95 2.79  
Year to date precipitation 49.42 42.62  
Sea Level Pressure  
Sea Level Pressure 30.11 in    
Wind  
Wind Speed 6 mph (ENE)    
Max Wind Speed 9 mph    
Max Gust Speed -    
Visibility 10 miles    
Events      
T = Trace of Precipitation, MM = Missing Value Source: NWS Daily Summary

Daily Weather History Graph

Daily Weather History Graph

Search for Another Location

Airport or City:

Astronomy

Oct. 24, 2019 Rise Set
Actual Time 7:39 AM EDT 6:52 PM EDT
Civil Twilight 7:15 AM EDT 7:17 PM EDT
Nautical Twilight 6:47 AM EDT 7:45 PM EDT
Astronomical Twilight 6:19 AM EDT 8:12 PM EDT
Moon 3:35 AM EDT (10/24) 4:56 PM EDT (10/24)
Length of Visible Light 12h 01m
Length of Day
11h 13m
Waning Crescent, 17% of the Moon is Illuminated
Oct 24
Waning Crescent
Oct 27
New
Nov 4
First Quarter
Nov 12
Full
Nov 19
Last Quarter

Hourly Weather History & Observations

Time (EDT) Temp. Heat Index Dew Point Humidity Pressure Visibility Wind Dir Wind Speed Gust Speed Precip Events Conditions
12:15 AM 61.9 °F - 54.0 °F 75% 30.14 in 10.0 mi ENE 3.5 mph - N/A   Unknown
12:35 AM 61.7 °F - 54.0 °F 76% 30.13 in 10.0 mi ENE 4.6 mph - N/A   Unknown
12:55 AM 61.3 °F - 54.0 °F 77% 30.13 in 10.0 mi NNE 4.6 mph - N/A   Unknown
1:15 AM 59.2 °F - 54.5 °F 84% 30.13 in 10.0 mi North 4.6 mph - N/A   Unknown
1:35 AM 58.8 °F - 54.7 °F 86% 30.12 in 10.0 mi NNE 3.5 mph - N/A   Unknown
1:55 AM 59.5 °F - 54.1 °F 82% 30.12 in 10.0 mi NE 4.6 mph - N/A   Unknown
2:15 AM 59.2 °F - 54.5 °F 84% 30.12 in 10.0 mi NE 4.6 mph - N/A   Unknown
2:35 AM 60.3 °F - 54.0 °F 80% 30.11 in 10.0 mi NE 4.6 mph - N/A   Unknown
2:55 AM 60.3 °F - 54.1 °F 80% 30.11 in 10.0 mi NE 5.8 mph - N/A   Unknown
3:15 AM 59.9 °F - 54.7 °F 83% 30.11 in 10.0 mi NE 4.6 mph - N/A   Unknown
3:35 AM 61.2 °F - 54.5 °F 79% 30.11 in 10.0 mi NE 5.8 mph - N/A   Unknown
3:55 AM 61.9 °F - 54.7 °F 77% 30.11 in 10.0 mi NE 5.8 mph - N/A   Unknown
4:15 AM 62.4 °F - 55.0 °F 77% 30.10 in 10.0 mi NE 6.9 mph - N/A   Unknown
4:35 AM 63.0 °F - 55.4 °F 76% 30.09 in 10.0 mi NE 4.6 mph - N/A   Unknown
4:55 AM 63.3 °F - 55.6 °F 76% 30.10 in 10.0 mi NE 5.8 mph - N/A   Unknown
5:15 AM 63.1 °F - 55.9 °F 77% 30.10 in 10.0 mi NE 4.6 mph - N/A   Unknown
5:35 AM 62.6 °F - 56.3 °F 80% 30.10 in 10.0 mi NE 5.8 mph - N/A   Unknown
5:55 AM 62.4 °F - 56.3 °F 80% 30.10 in 10.0 mi NE 4.6 mph - N/A   Unknown
6:15 AM 62.6 °F - 56.3 °F 80% 30.10 in 10.0 mi NE 5.8 mph - N/A   Unknown
6:35 AM 63.0 °F - 56.7 °F 80% 30.10 in 10.0 mi NE 5.8 mph - N/A   Unknown
6:55 AM 62.4 °F - 57.0 °F 82% 30.11 in 10.0 mi NNE 5.8 mph - N/A   Unknown
7:15 AM 62.4 °F - 57.4 °F 84% 30.11 in 10.0 mi NE 5.8 mph - N/A   Unknown
7:35 AM 63.1 °F - 57.9 °F 83% 30.11 in 10.0 mi NE 5.8 mph - N/A   Unknown
7:55 AM 63.5 °F - 58.3 °F 83% 30.11 in 10.0 mi NE 4.6 mph - N/A   Unknown
8:15 AM 64.0 °F - 58.8 °F 83% 30.11 in 10.0 mi NE 4.6 mph - N/A   Unknown
8:35 AM 65.3 °F - 59.7 °F 82% 30.12 in 10.0 mi NE 6.9 mph - N/A   Unknown
8:55 AM 66.7 °F - 60.4 °F 80% 30.13 in 10.0 mi NE 5.8 mph - N/A   Unknown
9:15 AM 69.6 °F - 61.9 °F 76% 30.14 in 10.0 mi ENE 8.1 mph - N/A   Unknown
9:35 AM 72.0 °F - 63.3 °F 74% 30.14 in 10.0 mi ENE 5.8 mph - N/A   Unknown
9:55 AM 73.0 °F - 64.0 °F 73% 30.15 in 10.0 mi ENE 6.9 mph - N/A   Unknown
10:15 AM 73.6 °F - 64.8 °F 74% 30.15 in 10.0 mi NE 5.8 mph - N/A   Unknown
10:35 AM 75.7 °F - 65.8 °F 71% 30.15 in 10.0 mi ENE 6.9 mph - N/A   Unknown
10:55 AM 77.9 °F - 66.7 °F 68% 30.15 in 10.0 mi ENE 6.9 mph - N/A   Unknown
11:15 AM 77.7 °F - 67.5 °F 71% 30.15 in 10.0 mi ENE 6.9 mph - N/A   Unknown
11:35 AM 78.4 °F - 68.4 °F 71% 30.15 in 10.0 mi East 8.1 mph - N/A   Unknown
11:55 AM 80.2 °F 83.0 °F 68.4 °F 67% 30.14 in 10.0 mi NE 9.2 mph - N/A   Unknown
12:35 PM 79.9 °F - 69.3 °F 70% 30.13 in 10.0 mi ENE 8.1 mph - N/A   Unknown
12:55 PM 82.0 °F 85.9 °F 70.0 °F 67% 30.13 in 10.0 mi East 8.1 mph - N/A   Unknown
1:15 PM 82.4 °F 86.5 °F 70.3 °F 67% 30.12 in 10.0 mi East 6.9 mph - N/A   Unknown
1:35 PM 84.7 °F 89.7 °F 71.1 °F 63% 30.11 in 10.0 mi ESE 8.1 mph - N/A   Unknown
1:50 PM 84.4 °F 89.7 °F 71.6 °F 65% 30.10 in 10.0 mi East 9.2 mph - N/A   Unknown
2:15 PM 84.6 °F 89.7 °F 71.2 °F 64% 30.09 in 10.0 mi ESE 9.2 mph - N/A   Unknown
2:35 PM 83.8 °F 88.9 °F 71.6 °F 66% 30.08 in 10.0 mi East 4.6 mph - N/A   Unknown
2:55 PM 83.8 °F 88.9 °F 71.4 °F 66% 30.08 in 10.0 mi NE 9.2 mph - N/A   Unknown
3:15 PM 84.7 °F 90.4 °F 71.6 °F 65% 30.07 in 10.0 mi ENE 9.2 mph - N/A   Unknown
3:35 PM 84.6 °F 90.0 °F 71.6 °F 65% 30.07 in 10.0 mi East 9.2 mph - N/A   Unknown
3:55 PM 83.8 °F 88.9 °F 71.4 °F 66% 30.06 in 10.0 mi East 9.2 mph - N/A   Unknown
4:15 PM 85.1 °F 90.8 °F 71.8 °F 64% 30.06 in 10.0 mi East 6.9 mph - N/A   Unknown
4:35 PM 83.7 °F 88.6 °F 71.2 °F 66% 30.06 in 10.0 mi NE 9.2 mph - N/A   Unknown
4:55 PM 82.6 °F 87.1 °F 71.2 °F 68% 30.06 in 10.0 mi NE 5.8 mph - N/A   Unknown
5:15 PM 83.5 °F 88.2 °F 71.1 °F 66% 30.06 in 10.0 mi ENE 8.1 mph - N/A   Unknown
5:35 PM 83.7 °F 88.6 °F 71.1 °F 66% 30.06 in 10.0 mi East 10.4 mph - N/A   Unknown
5:55 PM 82.6 °F 87.1 °F 71.2 °F 68% 30.06 in 10.0 mi NE 8.1 mph - N/A   Unknown
6:15 PM 81.9 °F 86.2 °F 71.1 °F 70% 30.07 in 10.0 mi ENE 4.6 mph - N/A   Unknown
6:35 PM 80.6 °F 84.2 °F 70.9 °F 72% 30.07 in 10.0 mi ENE 6.9 mph - N/A   Unknown
6:55 PM 79.5 °F - 70.5 °F 74% 30.08 in 10.0 mi ENE 5.8 mph - N/A   Unknown
7:15 PM 78.6 °F - 70.3 °F 76% 30.08 in 10.0 mi ENE 5.8 mph - N/A   Unknown
7:35 PM 78.1 °F - 70.3 °F 77% 30.09 in 10.0 mi ENE 8.1 mph - N/A   Unknown
7:55 PM 77.5 °F - 70.3 °F 78% 30.10 in 10.0 mi ENE 5.8 mph - N/A   Unknown
8:15 PM 77.2 °F - 70.5 °F 80% 30.10 in 10.0 mi ENE 8.1 mph - N/A   Unknown
8:35 PM 76.6 °F - 70.5 °F 81% 30.11 in 10.0 mi ENE 6.9 mph - N/A   Unknown
8:55 PM 76.3 °F - 70.7 °F 83% 30.12 in 10.0 mi North - - N/A   Unknown
9:15 PM 76.3 °F - 70.9 °F 83% 30.12 in 10.0 mi East 6.9 mph - N/A   Unknown
9:35 PM 75.9 °F - 70.7 °F 84% 30.12 in 10.0 mi ENE 6.9 mph - N/A   Unknown
9:55 PM 75.6 °F - 70.7 °F 85% 30.13 in 10.0 mi ENE 5.8 mph - N/A   Unknown
10:15 PM 75.0 °F - 70.7 °F 86% 30.14 in 10.0 mi ENE 4.6 mph - N/A   Unknown
10:35 PM 74.7 °F - 70.7 °F 87% 30.14 in 10.0 mi ENE 4.6 mph - N/A   Unknown
10:55 PM 74.1 °F - 70.5 °F 88% 30.14 in 10.0 mi East 5.8 mph - N/A   Unknown
11:15 PM 73.9 °F - 70.5 °F 89% 30.14 in 10.0 mi NE 4.6 mph - N/A   Unknown
11:35 PM 73.6 °F - 70.3 °F 90% 30.14 in 10.0 mi NE 5.8 mph - N/A   Unknown
11:55 PM 73.6 °F - 70.2 °F 89% 30.14 in 10.0 mi ENE 4.6 mph - N/A   Unknown